Simultaneous Nadir Overpasses (SNOs) Predictions

Prediction of SNOs between NOAA-19 and TERRA Satellite Orbit:

Table of predicted SNOs for the next 14.0 days since TLE Epoch: 6/2/2018
Index Date (NOAA-19) Time (NOAA-19) Lat,Lon (NOAA-19) SZA (NOAA-19 ) Date (TERRA) Time (TERRA) Lat,Lon (TERRA) SZA (TERRA ) Distance(km) Time Diff (sec)
1 06/03/2018 00:32:06 -77.30, 7.08 124.53 06/03/2018 00:33:17 -77.17, 8.40 124.54 35.36 71
2 06/03/2018 01:22:56 77.05, 175.49 55.31 06/03/2018 01:22:46 77.03, 175.49 55.28 2.81 10
3 06/05/2018 06:56:37 -77.07, -87.95 124.94 06/05/2018 06:56:31 -77.06, -87.82 124.95 3.58 6
4 06/07/2018 12:30:08 77.08, 8.73 54.84 06/07/2018 12:30:15 77.07, 8.78 54.83 1.45 7
5 06/09/2018 18:03:49 -77.10, 105.30 125.35 06/09/2018 18:04:01 -77.06, 105.30 125.38 3.75 12
6 06/09/2018 18:54:40 76.90, -86.56 54.53 06/09/2018 18:53:28 77.00, -87.29 54.54 21.30 72
7 06/11/2018 23:37:20 77.11,-158.06 54.50 06/11/2018 23:37:44 77.11,-157.96 54.51 2.57 24
8 06/12/2018 00:28:24 -77.05, 9.44 125.55 06/12/2018 00:27:13 -77.04, 9.41 125.59 1.43 71
9 06/14/2018 05:11:00 -77.09, -61.33 125.65 06/14/2018 05:11:30 -77.10, -61.44 125.64 2.58 30




NCC Satellite Simultaneous Nadir Overpasses (SNOs) Prediction Service
